Карточка аэропорта UATG

Внимание!
Информация на этой странице в стадии наполнения.
Если вы не увидели какой-то информации, или заметили неточность - пожалуйста сообщите нам!
Спасибо!
Команда RU-STAFF
Название аэропортаАтырау
Название аэропорта (англ.)Atyrau
Превышение-72 ft. (-21.9 m.)
Координаты47°7.332', 51°49.764'
Высота перехода10000ft
Эшелон переходаFL120, QNH<733:FL130
Коды ответчика3450-3457, 3560-3567
Зона ОрВДАктобе РПИ (UATT)
Данные METARUATG 130730Z 34012MPS CAVOK 23/11 Q1002 NOSIG RMK QFE753/1005
Проноз погоды (TAF)UATG 130500Z 1306/1406 33013G18MPS 9999 BKN030CB TX28/1310Z TN20/1402Z TEMPO 1306/1312 3100 BLDU BECMG 1315/1317 33007G12MPS
NOTAMshow/hide NOTAM
AWOS   TABLE

Информация о ВПП

ВПП Длина ВПП (м.) Покрытие Курс ВПП Частота ILS
323000Асфальтобетон329108.3
143000Асфальтобетон149109.9

Диспетчерские позиции

Позывной Наименование органа УВД Частота
UATG_TWRАтырау Вышка118.1
UATG_APPАтырау Подход123.7



Спутниковое изображение